Date String (YYYY-MM-DD hh:mm:ss) UTC,Instrument flags,Ambient pressure (hPa),Sample flow (lpm),Bypass flow (lpm),Sample temperature (°C),Ambient temperature (°C),ASC tube jacket temperature (°C),LED temperature (°C),Box temperature (°C),Sample RH (%),Span deviation,Mass concentration (μg/m³),Mass concentration (μg/m³),Mass concentration (μg/m³)
DateTimeUTC,F1_M11,P_M11,Q1_M11,Q2_M11,T1_M11,T2_M11,T3_M11,T4_M11,T5_M11,U1_M11,ZSPAN_M11,X2_M11,X0_M11,X1_M11
2023-02-28 11:00:00,,0811.2,5.02,0.00,22.4,22.8,00.0,31.0,24.5,08.0,0000.0,0000.90,0003.18,0000.54
2023-02-28 11:01:00,,0811.2,5.02,0.00,22.6,23.2,00.0,31.1,24.6,08.0,0000.0,0000.89,0003.15,0000.54
2023-02-28 11:02:00,,0811.3,4.99,0.00,22.6,22.6,00.0,31.1,24.5,08.0,0000.0,0000.88,0003.07,0000.54
2023-02-28 11:03:00,,0811.3,4.99,0.00,22.6,22.1,00.0,31.2,24.3,08.3,0000.0,0000.87,0003.03,0000.53
2023-02-28 11:04:00,,0811.2,4.99,0.00,22.5,21.6,00.0,31.2,24.2,08.4,0000.0,0000.88,0003.04,0000.53
2023-02-28 11:05:00,,0811.2,4.99,0.00,22.5,21.2,00.0,31.2,24.1,08.4,0000.0,0000.88,0003.04,0000.53
2023-02-28 11:06:00,,0811.2,4.99,0.00,22.4,20.9,00.0,31.2,24.0,08.3,0000.0,0000.88,0003.04,0000.53
2023-02-28 11:07:00,,0811.2,5.00,0.00,22.4,20.8,00.0,31.2,24.0,08.4,0000.0,0000.88,0003.05,0000.52
2023-02-28 11:08:00,,0811.2,4.99,0.00,22.3,20.7,00.0,31.2,24.0,08.5,0000.0,0000.87,0003.07,0000.51
2023-02-28 11:09:00,,0811.2,5.01,0.00,22.3,20.6,00.0,31.1,24.0,08.4,0000.0,0000.84,0002.05,0000.50
2023-02-28 11:10:00,,0811.1,4.99,0.00,22.3,20.6,00.0,31.1,24.0,08.4,0000.0,0000.83,0001.50,0000.49
2023-02-28 11:11:00,,0811.0,4.99,0.00,22.3,20.6,00.0,31.1,24.0,08.4,0000.0,0000.79,0001.42,0000.48
2023-02-28 11:12:00,,0811.0,5.00,0.00,22.3,20.5,00.0,31.1,23.9,08.2,0000.0,0000.79,0001.43,0000.47
2023-02-28 11:13:00,,0811.0,5.00,0.00,22.2,20.5,00.0,31.1,23.9,08.3,0000.0,0000.82,0001.54,0000.46
2023-02-28 11:14:00,,0811.0,4.99,0.00,22.2,20.4,00.0,31.1,23.9,08.3,0000.0,0000.79,0001.54,0000.45
2023-02-28 11:15:00,,0811.0,5.00,0.00,22.2,20.4,00.0,31.1,23.8,08.4,0000.0,0000.79,0001.55,0000.44
2023-02-28 11:16:00,,0811.0,5.00,0.00,22.2,20.4,00.0,31.0,23.8,08.4,0000.0,0000.78,0001.64,0000.43
2023-02-28 11:17:00,,0811.1,5.00,0.00,22.2,20.3,00.0,31.0,23.8,08.5,0000.0,0000.79,0001.70,0000.42
2023-02-28 11:18:00,,0811.2,5.01,0.00,22.1,20.6,00.0,31.0,23.7,08.6,0000.0,0000.79,0001.68,0000.42
2023-02-28 11:19:00,,0811.2,4.99,0.00,22.2,21.7,00.0,31.0,24.0,08.8,0000.0,0000.80,0001.58,0000.43
2023-02-28 11:20:00,,0811.2,4.99,0.00,22.3,22.7,00.0,31.0,24.3,08.7,0000.0,0000.78,0001.54,0000.43
2023-02-28 11:21:00,,0811.2,4.99,0.00,22.4,22.7,00.0,31.0,24.4,08.3,0000.0,0000.78,0001.53,0000.43
2023-02-28 11:22:00,,0811.2,4.99,0.00,22.4,22.2,00.0,31.1,24.3,08.3,0000.0,0000.79,0001.58,0000.43
2023-02-28 11:23:00,,0811.2,5.02,0.00,22.4,21.8,00.0,31.1,24.2,08.4,0000.0,0000.82,0001.64,0000.42
2023-02-28 11:24:00,,0811.2,4.99,0.00,22.4,21.5,00.0,31.1,24.2,08.5,0000.0,0000.80,0001.56,0000.42
2023-02-28 11:25:00,,0811.1,5.00,0.00,22.4,21.2,00.0,31.1,24.1,08.4,0000.0,0000.78,0001.53,0000.42
2023-02-28 11:26:00,,0811.1,5.00,0.00,22.4,21.0,00.0,31.1,24.1,08.4,0000.0,0000.75,0002.39,0000.42
2023-02-28 11:27:00,,0811.1,5.01,0.00,22.4,20.9,00.0,31.1,24.0,08.3,0000.0,0000.78,0002.70,0000.43
2023-02-28 11:28:00,,0811.0,5.01,0.00,22.3,20.8,00.0,31.1,24.0,08.4,0000.0,0000.76,0002.60,0000.42
2023-02-28 11:29:00,,0811.0,5.00,0.00,22.3,20.7,00.0,31.1,24.0,08.5,0000.0,0000.73,0002.58,0000.42
2023-02-28 11:30:00,,0811.0,5.00,0.00,22.3,20.6,00.0,31.1,23.9,08.4,0000.0,0000.73,0002.63,0000.41
2023-02-28 11:31:00,,0811.1,5.00,0.00,22.3,20.5,00.0,31.1,23.9,08.4,0000.0,0000.72,0002.62,0000.41
2023-02-28 11:32:00,,0811.0,5.00,0.00,22.2,20.5,00.0,31.1,23.9,08.5,0000.0,0000.72,0002.61,0000.41
2023-02-28 11:33:00,,0811.1,5.01,0.00,22.2,20.5,00.0,31.1,23.9,08.5,0000.0,0000.74,0002.67,0000.41
2023-02-28 11:34:00,,0811.0,5.00,0.00,22.2,20.4,00.0,31.0,23.9,08.6,0000.0,0000.71,0002.61,0000.41
2023-02-28 11:35:00,,0811.0,4.99,0.00,22.2,20.4,00.0,31.0,23.9,08.6,0000.0,0000.71,0002.63,0000.41
2023-02-28 11:36:00,,0811.0,5.00,0.00,22.2,20.4,00.0,31.0,23.9,08.6,0000.0,0000.74,0002.66,0000.42
2023-02-28 11:37:00,,0811.0,5.00,0.00,22.2,20.6,00.0,31.0,23.9,08.7,0000.0,0000.74,0001.67,0000.42
2023-02-28 11:38:00,,0811.0,5.02,0.00,22.2,21.7,00.0,31.0,24.1,08.6,0000.0,0000.71,0001.35,0000.42
2023-02-28 11:39:00,,0811.1,5.02,0.00,22.4,22.8,00.0,31.0,24.4,08.5,0000.0,0000.70,0001.36,0000.43
2023-02-28 11:40:00,,0811.0,4.99,0.00,22.5,23.0,00.0,31.0,24.5,08.6,0000.0,0000.71,0001.38,0000.43
2023-02-28 11:41:00,,0811.1,4.98,0.00,22.5,22.5,00.0,31.1,24.4,08.6,0000.0,0000.69,0001.34,0000.42
2023-02-28 11:42:00,,0811.0,5.00,0.00,22.5,22.1,00.0,31.1,24.4,08.6,0000.0,0000.72,0001.55,0000.43
2023-02-28 11:43:00,,0811.0,5.00,0.00,22.5,21.7,00.0,31.1,24.3,08.6,0000.0,0000.73,0002.26,0000.42
2023-02-28 11:44:00,,0811.0,5.01,0.00,22.5,21.4,00.0,31.1,24.2,08.5,0000.0,0000.71,0002.70,0000.42
2023-02-28 11:45:00,,0811.0,5.00,0.00,22.5,21.1,00.0,31.1,24.1,08.7,0000.0,0000.71,0002.71,0000.42
2023-02-28 11:46:00,,0811.0,4.99,0.00,22.4,20.9,00.0,31.1,24.0,09.0,0000.0,0000.72,0002.72,0000.42
2023-02-28 11:47:00,,0811.0,4.99,0.00,22.3,20.6,00.0,31.1,23.9,09.0,0000.0,0000.71,0002.67,0000.43
2023-02-28 11:48:00,,0810.9,5.03,0.00,22.3,20.4,00.0,31.1,23.8,09.0,0000.0,0000.73,0002.69,0000.44
2023-02-28 11:49:00,,0811.0,4.99,0.00,22.2,20.3,00.0,31.1,23.7,09.0,0000.0,0000.77,0002.85,0000.45
2023-02-28 11:50:00,,0811.0,5.00,0.00,22.2,20.3,00.0,31.0,23.7,08.9,0000.0,0000.77,0002.88,0000.46
2023-02-28 11:51:00,,0811.0,4.99,0.00,22.1,20.2,00.0,31.0,23.7,08.9,0000.0,0000.75,0002.79,0000.47
2023-02-28 11:52:00,,0811.0,5.00,0.00,22.1,20.1,00.0,31.0,23.6,08.8,0000.0,0000.75,0003.62,0000.47
2023-02-28 11:53:00,,0811.0,5.00,0.00,22.0,20.0,00.0,31.0,23.4,09.1,0000.0,0000.76,0003.52,0000.47
2023-02-28 11:54:00,,0811.0,4.99,0.00,21.9,20.1,00.0,30.9,23.4,09.2,0000.0,0000.77,0002.89,0000.48
2023-02-28 11:55:00,,0811.0,5.01,0.00,22.0,21.2,00.0,30.9,23.8,09.1,0000.0,0000.82,0002.60,0000.49
2023-02-28 11:56:00,,0810.9,4.97,0.00,22.2,22.4,00.0,30.9,24.1,08.7,0000.0,0000.85,0002.67,0000.50
2023-02-28 11:57:00,,0810.9,5.01,0.00,22.3,22.7,00.0,30.9,24.2,08.6,0000.0,0000.84,0002.64,0000.50
2023-02-28 11:58:00,,0810.9,5.01,0.00,22.3,22.2,00.0,31.0,24.1,08.6,0000.0,0000.85,0002.67,0000.49
2023-02-28 11:59:00,,0810.9,4.98,0.00,22.3,21.6,00.0,31.0,23.9,08.5,0000.0,0000.85,0002.75,0000.49
